Header for Extended Forecast Station List Page

Search by: ID | Name | Date | Parm | Value | Avg | % Avg
Sort by: ID | Name | Date | Parm | Value | Avg | % Avg

Enter search or view all records.

Click on id for station plot
#IDNameDateParmValueAvg% Avg
0LYDM8KOOTENAI-LIBBY DAM01-30-2023INFLOW (KAF)1769235975
1LEOI1KOOTENAI-AT LEONIA01-30-2023DISCHARGE (KAF)28422620108
2BFEI1KOOTENAI-AT BONNERS FERRY01-30-2023STAGE (FT)MMM
3FCFM8NF FLATHEAD-NEAR COLUMBIA FALLS01-30-2023DISCHARGE (KAF)46480058
4WGCM8MF FLATHEAD-NEAR WEST GLACIER01-30-2023DISCHARGE (KAF)54676072
5HHWM8SF FLATHEAD-HUNGRY HORSE DAM01-30-2023INFLOW (KAF)905106785
6CFMM8FLATHEAD-AT COLUMBIA FALLS01-30-2023DISCHARGE (KAF)1849247475
7DLGM8CLARK FORK-AT DEER LODGE01-30-2023DISCHARGE (KAF)456371
8DRMM8CLARK FORK-NR DRUMMOND01-30-2023DISCHARGE (KAF)12917673
9RCCM8ROCK CREEK-NEAR CLINTON01-30-2023DISCHARGE (KAF)7013552
10BONM8BLACKFOOT-NEAR BONNER01-30-2023DISCHARGE (KAF)40346587
11ABOM8CLARK FORK-ABOVE MISSOULA01-30-2023DISCHARGE (KAF)62281576
12BITM8BITTERROOT-NEAR MISSOULA01-30-2023DISCHARGE (KAF)32362452
13BELM8CLARK FORK-BELOW MISSOULA01-30-2023DISCHARGE (KAF)947146665
14STRM8ST. REGIS-NEAR ST. REGIS01-30-2023DISCHARGE (KAF)14119672
15SRGM8CLARK FORK-AT ST REGIS01-30-2023DISCHARGE (KAF)1255198163
16KERM8FLATHEAD-SELI’Š KSANKA QLISPE’ DAM01-30-2023INFLOW (KAF)2135314668
17NOXM8CLARK FORK-NOXON RAPIDS DAM01-30-2023INFLOW (KAF)3390525664
18CABI1CLARK FORK-CABINET GORGE DAM01-30-2023INFLOW (KAF)3775596163
19PRTI1PRIEST-NEAR PRIEST RIVER01-30-2023DISCHARGE (KAF)49058484
20ALFW1PEND OREILLE-ALBENI FALLS DAM01-30-2023INFLOW (KAF)4913705670
21HOPI1PEND OREILLE-PEND OREILLE LAKE NR HOPE01-30-2023LAKE ELEVATION (FT)MMM
22COEI1COEUR D ALENE-COEUR D ALENE LAKE01-30-2023INFLOW (KAF)2361250994
23SPOW1SPOKANE-AT SPOKANE01-30-2023DISCHARGE (KAF)2181255885
24LLKW1SPOKANE-AT LONGLAKE01-30-2023INFLOW (KAF)2485289586
25SATI1ST MARIES-NEAR SANTA01-30-2023DISCHARGE (KAF)146136107
26SJMI1ST JOE-AT ST MARIES01-30-2023STAGE (FT)MMM
27CIBW1COLUMBIA-AT INTL BOUNDARY01-30-2023DISCHARGE (KAF)147772092971
28LAUW1KETTLE-AT LAURIER01-30-2023DISCHARGE (KAF)715114463
29GCDW1COLUMBIA-GRAND COULEE DAM01-30-2023INFLOW (KAF)180802446674
30CHJW1COLUMBIA-CHIEF JOSEPH DAM01-30-2023INFLOW (KAF)182362613570
31TONW1OKANOGAN-NEAR TONASKET01-30-2023DISCHARGE (KAF)54788462
32PATW1METHOW-NEAR PATEROS01-30-2023DISCHARGE (KAF)31147066
33WELW1COLUMBIA-WELLS DAM01-30-2023INFLOW (KAF)190722766769
34CHDW1CHELAN-LAKE CHELAN DAM01-30-2023INFLOW (KAF)35354465
35RRHW1COLUMBIA-ROCKY REACH DAM01-30-2023INFLOW (KAF)194592826669
36ARDW1ENTIAT-NEAR ARDENVOIR01-30-2023DISCHARGE (KAF)649468
37PESW1WENATCHEE-AT PESHASTIN01-30-2023DISCHARGE (KAF)64581979
38WANW1COLUMBIA-WANAPUM DAM01-30-2023INFLOW (KAF)201012933369
39PRWW1COLUMBIA-PRIEST RAPIDS DAM01-30-2023INFLOW (KAF)200952941368
40KEDW1YAKIMA-KEECHELUS LAKE01-30-2023INFLOW (KAF)10795112
41KADW1KACHESS-KACHESS DAM01-30-2023INFLOW (KAF)9389105
42EASW1YAKIMA-AT EASTON01-30-2023DISCHARGE (KAF)8410084
43CLUW1CLE ELUM-CLE ELUM LAKE01-30-2023INFLOW (KAF)266255104
44TNAW1TEANAWAY-BELOW FORKS01-30-2023DISCHARGE (KAF)129126103
45UMTW1YAKIMA-AT UMTANUM01-30-2023DISCHARGE (KAF)52656693
46BUDW1BUMPING-BUMPING LAKE DAM01-30-2023INFLOW (KAF)7675101
47CLFW1NACHES-NEAR CLIFFDEL01-30-2023DISCHARGE (KAF)25327393
48RILW1TIETON-RIMROCK LAKE NEAR RIMROCK01-30-2023INFLOW (KAF)12212994
49NACW1NACHES-NEAR NACHES01-30-2023DISCHARGE (KAF)34739788
50PARW1YAKIMA-NEAR PARKER01-30-2023DISCHARGE (KAF)53471974
51KIOW1YAKIMA-AT KIONA01-30-2023DISCHARGE (KAF)781104075
52IPDI1HENRYS FORK-ISLAND PARK DAM01-30-2023INFLOW (KAF)12414784
53CHEI1FALL RIVER-NEAR CHESTER01-30-2023DISCHARGE (KAF)19922987
54ANTI1HENRYS FORK-AT ST. ANTHONY01-30-2023DISCHARGE (KAF)46752888
55TEAI1TETON-NEAR ST. ANTHONY01-30-2023DISCHARGE (KAF)15819183
56REXI1HENRYS FORK-AT REXBURG01-30-2023DISCHARGE (KAF)50458586
57JLKW4SNAKE-JACKSON LAKE AT DAM01-30-2023INFLOW (KAF)31436985
58JKSW4SNAKE-NEAR JACKSON01-30-2023DISCHARGE (KAF)47465972
59ALPW4SNAKE-NEAR ALPINE01-30-2023DISCHARGE (KAF)62885773
60PLDI1SF SNAKE-PALISADES DAM01-30-2023INFLOW (KAF)1085137679
61HEII1SNAKE-NEAR HEISE01-30-2023DISCHARGE (KAF)14001300108
62RIDI1WILLOW CREEK-RIRIE DAM01-30-2023INFLOW (KAF)4336119
63SIFI1SNAKE-AB EAGLE ROCK NR IDAHO FALLS01-30-2023DISCHARGE (KAF)14201273112
64SHYI1SNAKE-NEAR SHELLEY01-30-2023DISCHARGE (KAF)13381219110
65SNAI1SNAKE-AT BLACKFOOT01-30-2023DISCHARGE (KAF)1127917123
66BFTI1SNAKE-NEAR BLACKFOOT01-30-2023DISCHARGE (KAF)1106912121
67PIHI1PORTNEUF-AT POCATELLO01-30-2023DISCHARGE (KAF)7575101
68AFRI1SNAKE-AMERICAN FALLS RESERVOIR01-30-2023INFLOW (KAF)17251559111
69MILI1SNAKE-AT MILNER01-30-2023DISCHARGE (KAF)485588
70HOTI1BRUNEAU-NEAR HOT SPRINGS01-30-2023DISCHARGE (KAF)7711667
71SWAI1SNAKE-BELOW SWAN FALLS01-30-2023DISCHARGE (KAF)1767190893
72HWRI1BIG LOST-AT HOWELL RANCH NEAR CHILLY01-30-2023DISCHARGE (KAF)415279
73MACI1BIG LOST-MACKAY RESERVOIR NEAR MACKAY01-30-2023INFLOW (KAF)414592
74HALI1BIG WOOD-AT HAILEY01-30-2023DISCHARGE (KAF)7110766
75MAGI1BIG WOOD-MAGIC DAM01-30-2023INFLOW (KAF)8612072
76LWRI1LITTLE WOOD-LITTLE WOOD DAM01-30-2023INFLOW (KAF)5441133
77OWYO3OWYHEE-OWYHEE DAM01-30-2023INFLOW (KAF)425263162
78ARAI1SF BOISE-ANDERSON RANCH DAM01-30-2023INFLOW (KAF)29629999
79LUCI1BOISE-LUCKY PEAK DAM01-30-2023INFLOW (KAF)863728119
80BIGI1BOISE-AT GLENWOOD BRIDGE01-30-2023DISCHARGE (KAF)330169196
81PARI1BOISE-NEAR PARMA01-30-2023DISCHARGE (KAF)386239161
82WRMO3MALHEUR-WARM SPRINGS DAM01-30-2023INFLOW (KAF)607777
83BERO3MALHEUR-AGENCY VALLEY DAM01-30-2023INFLOW (KAF)454992
84BULO3BULLY CREEK-BULLY CREEK DAM01-30-2023INFLOW (KAF)305584
85CSDI1NF PAYETTE-CASCADE DAM01-30-2023INFLOW (KAF)26234077
86DEDI1DEADWOOD-NEAR LOWMAN01-30-2023INFLOW (KAF)677688
87EMMI1PAYETTE-NEAR EMMETT01-30-2023DISCHARGE (KAF)61385971
88WSRI1WEISER-NEAR WEISER01-30-2023DISCHARGE (KAF)34639388
89WEII1SNAKE-AT WEISER01-30-2023DISCHARGE (KAF)3357378989
90BRNI1SNAKE-BROWNLEE DAM01-30-2023INFLOW (KAF)3758420989
91WHBI1SALMON-AT WHITEBIRD01-30-2023DISCHARGE (KAF)2064318065
92TRYO3GRANDE RONDE-TROY01-30-2023DISCHARGE (KAF)1051113293
93ANAW1SNAKE-NEAR ANATONE01-30-2023DISCHARGE (KAF)6647976068
94ORFI1CLEARWATER-AT OROFINO01-30-2023DISCHARGE (KAF)2708314886
95DWRI1NF CLEARWATER-DWORSHAK DAM01-30-2023INFLOW (KAF)2038204999
96SPDI1CLEARWATER-AT SPALDING01-30-2023DISCHARGE (KAF)4586493093
97LGDW1SNAKE-LOWER GRANITE DAM01-30-2023INFLOW (KAF)112341503875
98LGSW1SNAKE-LITTLE GOOSE DAM01-30-2023INFLOW (KAF)112341508474
99LMNW1SNAKE-LOWER MONUMENTAL DAM01-30-2023INFLOW (KAF)114261525675
100IHDW1SNAKE-ICE HARBOR DAM01-30-2023INFLOW (KAF)114241527275
101TCHW1WALLA WALLA-NEAR TOUCHET01-30-2023DISCHARGE (KAF)20722791
102MCDW1COLUMBIA-MCNARY DAM01-30-2023INFLOW (KAF)323794584071
103GIBO3UMATILLA-NEAR GIBBON01-30-2023DISCHARGE (KAF)859094
104PDTO3UMATILLA-AT PENDLETON01-30-2023DISCHARGE (KAF)18320290
105MYKO3MCKAY CREEK-NEAR PILOT ROCK01-30-2023DISCHARGE (KAF)274265
106UMAO3UMATILLA-NEAR UMATILLA01-30-2023DISCHARGE (KAF)14417980
107MONO3NF JOHN DAY-AT MONUMENT01-30-2023DISCHARGE (KAF)43857277
108SERO3JOHN DAY-AT SERVICE CK01-30-2023DISCHARGE (KAF)60081973
109JDAO3COLUMBIA-JOHN DAY DAM01-30-2023INFLOW (KAF)343644797372
110MODO3DESCHUTES-AT MOODY NR BIGGS01-30-2023DISCHARGE (KAF)14891457102
111TDAO3COLUMBIA-THE DALLES DAM01-30-2023INFLOW (KAF)348434847772
112PITW1KLICKITAT-NEAR PITT01-30-2023DISCHARGE (KAF)46850293
113HODO3HOOD-NEAR TUCKER BRIDGE01-30-2023DISCHARGE (KAF)289266109
114UNDW1WHITE SALMON-NEAR UNDERWOOD01-30-2023DISCHARGE (KAF)33734399
115BONO3COLUMBIA-BONNEVILLE DAM01-30-2023INFLOW (KAF)359175056671